DELTA 1 DEB, 29184

Orbit data source: Space-Track

DELTA 1 DEB, 29184 is space debris in LEO originally from a launch on Thu, 11 Jan 1968 UTC launched from the Air Force Western Test Range (AFWTR). Debris objects in space refer to the collection of defunct objects orbiting the Earth. Examples of debris include non-operational satellites, rocket bodies, and fragments generated from explosions, collisions, or faulty payload assembly.

Loading next visibility...
Identifier
29184, 1968-002H
Orbit
LEO
Last TLE update
2 weeks ago
Origin
Manufacturer
Unknown
Mission
Spacecraft
Bus & Motor
Unknown
Mass
Unknown
Launch date (UTC)
1968-01-11 (57 years ago)
Launch vehicle
Unknown
Launch site
Air Force Western Test Range (AFWTR)
Object type
Payload
Rocket body
Debris
Shape & HBR
Unknown
Radar Cross Section
Small (<0.1 m²)

Expand to show TLE details & history

TLE from 2 weeks ago
0 DELTA 1 DEB
1 29184U 68002H   25116.38544292  .00001624  00000-0  37883-2 0  9996
2 29184 105.8352 321.6806 0260570 220.1094 138.0496 13.15928840503701
Epoch: 2025-04-26T09:15Z
Definitive object data (Epoch: 2025-04-26T09:15:02.268Z)
Latitude
-0.00004°
Longitude
-31.70776°
Altitude
1,351.902 km
Speed
7.111 km/s
True Right ascension
21h 26m 43s
True Declination
0° 00' 00"
Sunlit
Object was in daylight at TLE epoch
Visualization TLE readout
Latitude
-45.75819°
Longitude
150.6293°
Altitude
1,044.933 km
Speed
7.412 km/s
Apparent Right ascension
06h 22m 29s
Apparent Declination
-55° 30' 07"
Sunlit
Object is in daylight
Visualization observer readout
Local Sidereal Time
14:53:06
Azimuth
227.555° WSW
Elevation
-52.581°
Doppler factor
1
Orbital elements
Apogee altitude
1,395.469 km
Perigee altitude
1,000.644 km
Semi-major axis
7,576.194 km
Eccentricity
0.026057
Inclination
105.8352°
RAAN
321.6806°
Arg. of periapsis
220.1094°
True anomaly
139.99802°
Mean anomaly
138.0496°
Eccentric anomaly
139.02851°
Mean motion
3.29129 °/min
BSTAR
0.0037883
Orbital period
109.38 mins
Loading maneuver chart data...
Loading SW <> Apogee altitude chart data...
Loading historical data...
Loading historical data...
Loading historical data...
Loading historical data...
Loading historical data...
Loading historical data...
Loading historical data...

DELTA 1 DEB Visibility forecast

Observer location: undefined°, undefined°

Span
Click to sort rows by Start time (UTC) header in descending order
Start Az.
Max El. time (UTC)
Max El. Az.
Max El.
End time (UTC)
End Az.
7 mins2025-05-09 11:18:13.718Z69.87° E2025-05-09 11:21:13.718Z46.575° ENE14.494°2025-05-09 11:25:13.718Z14.164° NNE
13 mins2025-05-09 13:01:13.718Z133.69° SE2025-05-09 13:07:13.718Z61.196° ENE40.752°2025-05-09 13:14:13.718Z345.646° N
11 mins2025-05-09 14:49:13.718Z205.48° SW2025-05-09 14:54:13.718Z255.347° W28.161°2025-05-09 15:00:13.718Z313.093° NW
9 mins2025-05-10 02:19:13.718Z52.547° ENE2025-05-10 02:23:13.718Z99.157° ESE26.088°2025-05-10 02:28:13.718Z157.806° S
11 mins2025-05-10 04:05:13.718Z9.741° NNE2025-05-10 04:10:13.718Z313.78° NW36.819°2025-05-10 04:16:13.718Z230.108° WSW
|